Location: Ahausen
(50.4985°N, 8.2722°E)
Time: 05:06:39
(UTC+00:00)

YUBILEINY - Pass Details

Date: 06 July 2022
Orbit: 1478 x 1509 km, 82.5° (Epoch: 17 August)

Event Time Altitude Azimuth Distance (km) Brightness Sun altitude
Rises 01:41:49 0° 349° (N) 4,655 ? -11.4°
Reaches altitude 10° 01:45:08 10° 359° (N) 3,666 ? -11.1°
Maximum altitude 01:53:03 35° 62° (ENE) 2,240 ? -10.4°
Drops below altitude 10° 02:00:51 10° 126° (SE) 3,629 ? -9.7°
Sets 02:04:05 0° 135° (SE) 4,601 ? -9.4°
